Left ArrowRight Arrow

41.86663, -103.66717

Hourly Observations for June 17, 2024

Temp ( °F °C ) Dew Point ( °F °C ) Humidity (%) Winds ( mph kmh ) Pressure ( in mb ) Visibility ( mi km ) Precip ( " mm )
12:53 am 00:53 Clear 61 16.1 47 8.3 60 60 ENE 25 41 29.60 1002 10 16 0.00 0.00
1:53 am 01:53 Partly Cloudy 57 13.9 49 9.4 74 74 NE 18 30 29.61 1003 10 16 0.00 0.00
2:53 am 02:53 Cloudy 57 13.9 49 9.4 74 74 E 10 17 29.62 1003 10 16 0.00 0.00
3:53 am 03:53 Cloudy 58 14.4 49 9.4 72 72 ENE 9 15 29.61 1003 10 16 0.00 0.00
4:48 am 04:48 Cloudy 57 14 52 11 82 82 ENE 10 17 29.66 1004 10 16 0.00 0.00
4:53 am 04:53 Cloudy 58 14.4 51 10.6 78 78 ENE 9 15 29.63 1003 10 16 0.00 0.00
5:39 am 05:39 Cloudy 58 14.4 51 10.6 78 78 ENE 6 9 29.64 1004 10 16 0.00 0.00
5:51 am 05:51 Cloudy 59 15 52 11 77 77 NE 7 11 29.64 1004 10 16 0.00 0.00
5:53 am 05:53 Cloudy 59 15 51 10.6 75 75 ENE 6 9 29.63 1003 10 16 0.00 0.00
6:53 am 06:53 Cloudy 59 15 51 10.6 75 75 ENE 8 13 29.64 1004 10 16 0.00 0.00
7:53 am 07:53 Cloudy 59 15 52 11.1 77 77 ENE 8 13 29.63 1004 10 16 0.00 0.00
8:53 am 08:53 Cloudy 60 15.6 53 11.7 78 78 E 6 9 29.61 1003 10 16 0.00 0.00
9:53 am 09:53 Cloudy with Haze 61 16.1 55 12.8 81 81 E 8 13 29.60 1002 6 10 0.00 0.00
10:04 am 10:04 Cloudy 61 16.1 55 12.8 81 81 ESE 7 11 29.58 1002 7 11 0.00 0.00
10:53 am 10:53 Cloudy with Haze 61 16.1 56 13.3 83 83 SE 6 9 29.58 1002 5 8 0.00 0.00
11:51 am 11:51 Cloudy 64 18 55 13 73 73 E 7 11 29.50 999 10 16 0.00 0.00
11:53 am 11:53 Cloudy 64 17.8 56 13.3 75 75 ESE 6 9 29.55 1001 10 16 0.00 0.00
12:53 pm 12:53 Cloudy 69 20.6 58 14.4 68 68 ESE 9 15 29.51 999 10 16 0.00 0.00
1:18 pm 13:18 Cloudy 70 21.1 58 14.4 66 66 undefined N/A 29.41 996 10 16 0.00 0.00
1:53 pm 13:53 Cloudy 71 21.7 59 15 66 66 ESE 12 19 29.47 998 10 16 0.00 0.00
2:50 pm 14:50 Partly Cloudy 73 23 61 16 65 65 SE 15 24 29.32 993 10 16 0.00 0.00
2:53 pm 14:53 Mostly Sunny 75 23.9 61 16.1 62 62 ESE 16 26 29.43 997 10 16 0.00 0.00
3:30 pm 15:30 Mostly Sunny 76 24.4 61 16.1 60 60 ESE 20 31 29.28 991 10 16 0.00 0.00
3:53 pm 15:53 Mostly Sunny 79 26.1 62 16.7 56 56 ESE 20 31 29.37 995 10 16 0.00 0.00
4:53 pm 16:53 Sunny 84 28.9 63 17.2 49 49 SE 23 37 29.33 993 10 16 0.00 0.00
5:01 pm 17:01 Mostly Sunny 85 29.4 61 16.1 45 45 SSE 18 30 29.16 988 10 16 0.00 0.00
5:53 pm 17:53 Sunny 86 30 62 16.7 45 45 SE 22 35 29.28 992 10 16 0.00 0.00
6:53 pm 18:53 Sunny 87 30.6 60 15.6 40 40 SE 16 26 29.27 991 10 16 0.00 0.00
7:53 pm 19:53 Sunny 84 28.9 60 15.6 45 45 ESE 12 19 29.25 991 10 16 0.00 0.00
8:53 pm 20:53 Clear 81 27.2 60 15.6 49 49 E 9 15 29.23 990 10 16 0.00 0.00
9:53 pm 21:53 Partly Cloudy with Light Rain 79 26.1 61 16.1 54 54 N 9 15 29.23 990 10 16 0.01 0.13
10:53 pm 22:53 Mostly Clear with Light Rain 84 28.9 56 13.3 38 38 SW 7 11 29.23 990 10 16 0.01 0.13
11:53 pm 23:53 Clear 74 23.3 60 15.6 62 62 undefined N/A 29.29 992 10 16 0.01 0.13

Powered by Vaisala Xweather